EW3302 Weather Reports


Display with metric or nautical units.
time (UTC)temp
F
wind
direction
speed
MPH
gust
MPH
rain 1hr
in
rain 24hr
in
rain mn
in
humidity
%
barometer
mb
20260505223516 28 0.0 2.0 0.00 0.02 0.00 81 1010.4
20260505222516 29 0.0 1.0 0.00 0.03 0.00 80 1010.3
20260505221536 29 315 1.0 2.0 0.00 0.03 0.00 79 1010.1
20260505220516 29 315 1.0 2.0 0.00 0.03 0.00 78 1010.1
20260505215516 30 315 2.0 3.0 0.00 0.04 0.04 77 1010.0
20260505214516 30 315 2.0 3.0 0.00 0.04 0.04 76 1010.0
20260505213515 30 315 2.0 3.0 0.00 0.04 0.04 75 1010.1
20260505212516 31 315 2.0 2.0 0.00 0.04 0.04 73 1009.9
20260505211516 31 293 2.0 2.0 0.00 0.04 0.04 72 1009.8
20260505210516 32 270 1.0 3.0 0.00 0.04 0.04 71 1009.8
20260505205516 32 0.0 1.0 0.00 0.04 0.04 70 1009.6
20260505204516 33 270 1.0 2.0 0.00 0.04 0.04 68 1009.5
20260505203516 34 270 1.0 2.0 0.00 0.04 0.04 66 1009.5
20260505202516 35 0.0 2.0 0.00 0.04 0.04 64 1009.4
20260505201516 36 248 1.0 2.0 0.00 0.04 0.04 62 1009.4
20260505200516 36 248 1.0 3.0 0.00 0.04 0.04 60 1009.3
20260505195515 37 248 1.0 2.0 0.00 0.04 0.04 59 1009.3
20260505194516 38 270 2.0 4.0 0.00 0.04 0.04 58 1009.3
20260505193516 38 270 2.0 3.0 0.00 0.04 0.04 56 1009.2
20260505192516 39 270 2.0 5.0 0.00 0.04 0.04 55 1009.1
20260505191516 39 270 2.0 4.0 0.00 0.04 0.04 54 1009.0
20260505190516 40 270 2.0 6.0 0.00 0.04 0.04 52 1009.0
20260505185515 41 270 2.0 3.0 0.00 0.04 0.04 51 1008.8
20260505184516 41 248 2.0 4.0 0.00 0.04 0.04 50 1008.6
20260505183515 42 248 2.0 6.0 0.00 0.04 0.04 47 1008.6
20260505182516 43 248 3.0 8.0 0.00 0.04 0.04 46 1008.5
20260505181516 43 270 3.0 8.0 0.00 0.04 0.04 49 1008.5
20260505180516 43 270 4.0 7.0 0.00 0.04 0.04 48 1008.4
20260505175516 43 270 3.0 5.0 0.00 0.04 0.04 49 1008.5
20260505174515 44 270 4.0 8.0 0.00 0.04 0.04 47 1008.4
20260505173515 45 270 3.0 7.0 0.00 0.04 0.04 46 1008.3
20260505172535 45 270 4.0 8.0 0.00 0.04 0.04 45 1008.2
20260505171516 44 315 5.0 10.0 0.00 0.04 0.04 45 1008.1
20260505170516 45 270 4.0 9.0 0.00 0.04 0.04 45 1008.1
20260505165515 45 270 4.0 7.0 0.00 0.04 0.04 44 1007.8
20260505164536 46 248 3.0 7.0 0.00 0.04 0.04 44 1007.9
20260505163515 45 248 2.0 4.0 0.00 0.04 0.04 49 1007.8
20260505162516 43 248 3.0 6.0 0.00 0.04 0.04 53 1008.0
20260505161515 42 203 5.0 9.0 0.00 0.04 0.04 56 1007.8
20260505160515 43 225 10.0 22.0 0.00 0.04 0.04 56 1008.1
20260505152515 46 338 2.0 6.0 0.00 0.04 0.04 40 1007.3
20260505151516 46 225 7.0 13.0 0.00 0.04 0.04 42 1007.5
20260505150516 46 270 10.0 21.0 0.00 0.04 0.04 40 1007.3
20260505140516 48 248 5.0 11.0 0.01 0.04 0.04 41 1007.1
20260505124515 49 248 4.0 11.0 0.00 0.03 0.03 38 1006.8
20260505123515 47 0 3.0 8.0 0.00 0.03 0.03 42 1006.8
20260505122515 46 293 3.0 7.0 0.00 0.03 0.03 42 1006.8
20260505121517 45 315 5.0 11.0 0.00 0.03 0.03 50 1006.9
20260505120517 44 270 6.0 10.0 0.00 0.03 0.03 52 1007.0
20260505115517 44 315 6.0 13.0 0.00 0.03 0.03 48 1006.8
20260505114537 46 315 9.0 15.0 0.00 0.03 0.03 49 1006.8
20260505113518 47 315 5.0 12.0 0.00 0.03 0.03 43 1006.4
20260505112517 45 248 3.0 7.0 0.00 0.03 0.03 48 1006.6
20260505111517 45 248 3.0 7.0 0.00 0.03 0.03 47 1006.7
20260505110517 46 270 3.0 9.0 0.00 0.03 0.03 45 1006.6
20260505101517 45 293 3.0 6.0 0.00 0.03 0.03 50 1006.4
20260505100517 45 315 6.0 13.0 0.00 0.03 0.03 51 1006.4
20260505095517 46 315 3.0 9.0 0.00 0.03 0.03 50 1006.4
20260505094517 45 315 5.0 9.0 0.00 0.03 0.03 50 1006.4
20260505093517 46 315 6.0 10.0 0.00 0.03 0.03 50 1006.4
20260505092517 45 270 4.0 10.0 0.00 0.03 0.03 56 1006.4
20260505091517 45 248 6.0 11.0 0.00 0.03 0.03 52 1006.4
20260505090517 45 293 4.0 7.0 0.00 0.03 0.03 54 1006.3
20260505085517 44 270 4.0 9.0 0.00 0.03 0.03 53 1006.4
20260505084517 44 270 4.0 8.0 0.00 0.03 0.03 55 1006.3
20260505083517 43 270 5.0 11.0 0.00 0.03 0.03 58 1006.2
20260505082537 43 270 5.0 9.0 0.00 0.03 0.03 57 1006.1
20260505081517 43 270 4.0 8.0 0.00 0.03 0.03 57 1006.1
20260505080537 43 270 4.0 7.0 0.00 0.03 0.03 58 1006.0
20260505075517 42 225 4.0 9.0 0.00 0.03 0.03 61 1006.0
20260505074517 42 315 4.0 7.0 0.00 0.03 0.03 61 1005.9
20260505073517 42 270 4.0 10.0 0.00 0.03 0.03 60 1005.9
20260505072517 43 270 7.0 14.0 0.00 0.03 0.03 60 1005.8
20260505071537 42 225 3.0 7.0 0.00 0.03 0.03 62 1005.7
20260505070517 42 270 5.0 15.0 0.00 0.03 0.03 60 1005.5
20260505065537 42 293 5.0 10.0 0.00 0.03 0.03 62 1005.5
20260505064517 41 293 5.0 9.0 0.00 0.03 0.03 64 1005.4
20260505063517 41 270 8.0 16.0 0.00 0.03 0.03 64 1005.3
20260505062517 40 270 7.0 11.0 0.00 0.03 0.03 68 1005.2
20260505061517 40 270 8.0 14.0 0.00 0.03 0.03 69 1005.1
20260505060517 39 270 7.0 17.0 0.00 0.03 0.03 70 1005.1
20260505055517 39 270 7.0 11.0 0.00 0.03 0.03 71 1005.1
20260505054517 38 270 7.0 12.0 0.00 0.03 0.03 71 1005.1
20260505053517 38 270 8.0 15.0 0.00 0.03 0.03 71 1005.1
20260505052517 38 270 7.0 13.0 0.00 0.03 0.03 72 1005.0
20260505051517 38 293 6.0 13.0 0.00 0.03 0.03 73 1005.0
20260505050517 37 270 7.0 15.0 0.00 0.03 0.03 73 1004.7
20260505041517 35 270 5.0 12.0 0.00 0.03 0.03 78 1004.5
20260505040537 35 270 6.0 11.0 0.00 0.03 0.03 79 1004.4
20260505035517 35 270 6.0 10.0 0.00 0.03 0.03 80 1004.3
20260505034517 35 270 5.0 10.0 0.00 0.03 0.03 81 1004.1
20260505033517 35 293 4.0 9.0 0.00 0.03 0.03 82 1004.1
20260505032517 35 270 4.0 10.0 0.00 0.03 0.03 84 1004.0
20260505031517 35 270 4.0 9.0 0.00 0.03 0.03 86 1004.0
20260505030517 35 270 5.0 10.0 0.00 0.03 0.03 88 1003.9
20260505025537 35 270 4.0 10.0 0.00 0.03 0.03 89 1003.7
20260505024537 35 270 5.0 9.0 0.00 0.03 0.03 90 1003.6
20260505023517 35 270 4.0 9.0 0.00 0.03 0.03 90 1003.4
20260505022517 35 270 4.0 9.0 0.00 0.03 0.03 91 1003.4
20260505021557 35 270 5.0 9.0 0.00 0.03 0.03 91 1003.3
20260505020537 35 293 3.0 7.0 0.00 0.03 0.03 91 1003.2
20260505015537 35 293 1.0 4.0 0.00 0.03 0.03 90 1003.1
20260505014517 35 270 2.0 4.0 0.00 0.03 0.03 91 1003.0
20260505013537 36 248 3.0 7.0 0.00 0.03 0.03 91 1003.0
20260505012517 36 270 3.0 6.0 0.00 0.03 0.03 91 1002.9
20260505011517 36 270 2.0 4.0 0.00 0.03 0.03 92 1002.9
20260505010517 36 270 3.0 6.0 0.00 0.03 0.03 92 1002.9
20260505005517 36 293 2.0 5.0 0.00 0.03 0.03 92 1002.8
20260505004537 36 270 2.0 5.0 0.00 0.03 0.03 92 1002.7
20260505003517 36 315 1.0 5.0 0.00 0.03 0.03 91 1002.6
20260505002517 36 270 2.0 5.0 0.00 0.03 0.03 91 1002.7
20260505001517 37 248 2.0 6.0 0.00 0.03 0.03 92 1002.7
20260505000517 36 270 3.0 7.0 0.00 0.03 0.03 92 1002.5
20260504235517 36 293 4.0 6.0 0.00 0.03 0.03 91 1002.4
20260504234537 36 270 5.0 8.0 0.01 0.03 0.03 91 1002.5
20260504233517 37 248 4.0 7.0 0.01 0.03 0.03 91 1002.5
20260504232517 37 270 4.0 9.0 0.02 0.03 0.03 90 1002.3
20260504231537 37 315 3.0 11.0 0.02 0.03 0.03 90 1001.9
20260504230517 38 293 4.0 7.0 0.02 0.03 0.03 90 1001.8
20260504225516 38 293 4.0 8.0 0.03 0.03 0.03 89 1001.8
20260504224517 39 293 6.0 12.0 0.02 0.02 0.02 88 1002.0